Hourly Data Report for July 17, 2003

TORONTO CITY
ONTARIO

43°40'00.000" N
79°24'00.000" W
112.50 m
6158355
71508
XTO

Download Data

Hourly Data (July 2003)
Hourly Data Report for July 17, 2003
TIME
LST
Temp Definition
°C
Dew Point Definition
°C
Rel Hum Definition
%
Precip. Amount Definition
mm

Wind Dir Definition
10's deg

Wind Spd Definition
km/h
Visibility Definition
km
Stn Press Definition
kPa
Hmdx Definition


Wind Chill Definition


Weather Definition


00:00 14.6 12.6 88   LegendMM LegendMM LegendMM 100.52     LegendNANA
01:00 13.8 12.2 90   LegendMM LegendMM LegendMM 100.52     LegendNANA
02:00 14.0 10.8 81   LegendMM LegendMM LegendMM 100.48     LegendNANA
03:00 14.1 11.3 83   LegendMM LegendMM LegendMM 100.47     LegendNANA
04:00 14.3 10.7 79   LegendMM LegendMM LegendMM 100.45     LegendNANA
05:00 13.5 11.1 85   LegendMM LegendMM LegendMM 100.45     LegendNANA
06:00 15.1 11.5 79   LegendMM LegendMM LegendMM 100.46     LegendNANA
07:00 16.2 12.2 77   LegendMM LegendMM LegendMM 100.44     LegendNANA
08:00 19.0 13.3 70   LegendMM LegendMM LegendMM 100.42     LegendNANA
09:00 19.7 14.0 70   LegendMM LegendMM LegendMM 100.40     LegendNANA
10:00 21.4 15.8 70   LegendMM LegendMM LegendMM 100.37 26   LegendNANA
11:00 22.9 15.5 63   LegendMM LegendMM LegendMM 100.35 27   LegendNANA
12:00 25.2 16.9 60   LegendMM LegendMM LegendMM 100.30 30   LegendNANA
13:00 26.0 17.2 58   LegendMM LegendMM LegendMM 100.26 31   LegendNANA
14:00 28.8 17.8 51   LegendMM LegendMM LegendMM 100.17 35   LegendNANA
15:00 29.9 16.4 44   LegendMM LegendMM LegendMM 100.14 35   LegendNANA
16:00 28.9 16.2 46   LegendMM LegendMM LegendMM 100.13 34   LegendNANA
17:00 27.6 16.0 49   LegendMM LegendMM LegendMM 100.15 32   LegendNANA
18:00 26.5 16.5 54   LegendMM LegendMM LegendMM 100.17 31   LegendNANA
19:00 26.0 17.2 58   LegendMM LegendMM LegendMM 100.15 31   LegendNANA
20:00 25.2 17.9 64   LegendMM LegendMM LegendMM 100.16 31   LegendNANA
21:00 23.5 17.7 70   LegendMM LegendMM LegendMM 100.18 29   LegendNANA
22:00 21.5 16.1 71   LegendMM LegendMM LegendMM 100.20 26   LegendNANA
23:00 20.7 15.4 72   LegendMM LegendMM LegendMM 100.24 25   LegendNANA

Notes on Data Quality.

Legend

  • E = Estimated
  • M = Missing
  • NA = Not Available*
  • [empty] = Indicates an unobserved value
Date modified: